Location: Newark
(44.1667°N, 8.2500°E)
Time: 21:05:40
(UTC+00:00)

Envisat - Pass Details

Date: 14 November 2019
Orbit: 764 x 766 km, 98.1° (Epoch: 14 December)

Event Time Altitude Azimuth Distance (km) Brightness Sun altitude
Rises 18:41:02 0° 208° (SSW) 3,220 6.6 -28.6°
Reaches altitude 10° 18:44:04 10° 227° (SW) 2,300 6.0 -29.1°
Maximum altitude 18:47:28 18° 269° (W) 1,813 5.7 -29.7°
Drops below altitude 10° 18:50:54 10° 312° (NW) 2,311 6.1 -30.3°
Sets 18:53:58 0° 331° (NNW) 3,243 6.7 -30.9°
